DELTA 1 DEB, 10751

Orbit data source: Space-Track

DELTA 1 DEB, 10751 is space debris in LEO originally from a launch on Thu, 29 Jul 1976 UTC launched from the Air Force Western Test Range (AFWTR). Debris objects in space refer to the collection of defunct objects orbiting the Earth. Examples of debris include non-operational satellites, rocket bodies, and fragments generated from explosions, collisions, or faulty payload assembly.

Loading next visibility...
Identifier
10751, 1976-077AY
Orbit
LEO
Country
Flag of USUS
Related business
Manufacturer
Unknown
Mission
Spacecraft
Bus & Motor
Unknown
Mass
Unknown
Launch date (UTC)
1976-07-29 (49 years ago)
Launch vehicle
Unknown
Launch site
Air Force Western Test Range (AFWTR)
Object type
Payload
Rocket body
Debris
Shape & HBR
Unknown shape, 1.1 m
Radar Cross Section
Medium (>0.1 m² and <1 m²)

Expand to show TLE details & history
Last TLE update: 22 hours ago

TLE from 22 hours ago
0 DELTA 1 DEB
1 10751U 76077AY  25291.03779258  .00000984  00000-0  13685-1 0  9996
2 10751 102.0687 301.5703 0609779  34.0207 349.3459 11.55383357 68869
Epoch: 2025-10-18T00:54Z
TLE epoch observation values (Epoch: 2025-10-18T00:54:25.278Z)
Latitude
21.47488°
Longitude
-103.61042°
Altitude
1,394.995 km
Speed
7.375 km/s
True Right ascension
19h 47m 04s
True Declination
21° 22' 03"
Sunlit
Object was in daylight at epoch
Visualization orbit readout
Latitude
Unknown
Longitude
Unknown
Altitude
Unknown
Speed
Unknown
Apparent Right ascension
Unknown
Apparent Declination
Unknown
Sunlit
N/A
Visualization observer readout
Local Sidereal Time
18:08:48
Azimuth
Unknown
Elevation
Unknown
Doppler factor
Unknown
Orbital elements
Apogee altitude
2,388.548 km
Perigee altitude
1,380.847 km
Semi-major axis
8,262.835 km
Eccentricity
0.06098
Inclination
102.0687°
RAAN
301.5703°
Arg. of periapsis
34.0207°
True anomaly
347.94995°
Mean anomaly
349.3459°
Eccentric anomaly
348.65885°
Mean motion
2.88968 °/min
Orbital period
124.58 mins
BSTAR
0.013685
Loading maneuver chart data...
Computing Atmospheric mass density...
Loading historical data...
Loading historical data...
Loading historical data...
Loading historical data...
Loading historical data...
Loading historical data...
Loading historical data...

Documentation

Showing up to 5 results
|